Terminal Aerodrome Forecast
Issued by NWS Mobile, AL

Home | Current Version | Previous Version | Text Only | Print | Product List | Glossary On
Versions: 1 2 3 4 5 6 7 8 9 10 11 12 13 14 15 16 17 18 19 20 21 22 23 24 25 26 27 28 29 30 31 32 33 34 35 36 37 38 39 40 41 42 43 44 45 46
000
FTUS44 KMOB 201511 AAB
TAFMOB
TAF AMD
KMOB 201511Z 2015/2112 18005KT P6SM BKN040
     FM201600 22010KT P6SM SCT020
     FM210300 16004KT 3SM BR OVC005
      TEMPO 2108/2112 2SM TSRA BKN007CB=

USA.gov is the U.S. government's official web portal to all federal, state and local government web resources and services.